Other Public Products
Issued by NWS Grand Forks, ND

Home | Current Version | Previous Version | Text Only | Print | Product List | Glossary Off
Versions: 1 2 3 4 5 6 7 8 9 10 11 12 13 14 15 16 17 18 19 20 21 22 23 24 25 26 27 28 29 30 31 32 33 34 35 36 37 38 39 40 41 42 43 44 45 46 47 48 49 50

000
FPUS83 KFGF 242031
OPUFGF
PRAIRIE TO PINES WEATHER ROUNDUP
NATIONAL WEATHER SERVICE EASTERN NORTH DAKOTA/GRAND FORKS ND
200 PM CST FRI FEB 24 2017

 **SATELLITE DATA USED TO AUGMENT SKY COVER AT AUTOMATED STATIONS**
 *****  WEATHER ACROSS EASTERN NORTH DAKOTA  *****

CITY           SKY/WX    TMP DP  RH WIND       PRES   REMARKS
GRAND FORKS    PTSUNNY   20   9  62 N17       30.12F WCI   5
GRAND FORKS AF PTSUNNY   21  12  68 N12G20    30.12S WCI   9
GRAND CITY NWS NOT AVBL
BUXTON         NOT AVBL
DEVILS LAKE    CLOUDY    20  14  77 NW12      30.11F WCI   8
FARGO          PTSUNNY   25  15  66 N23       30.07F WCI  10
WAHPETON ARPT  FAIR      27  16  63 N22G30    30.03S WCI  12
$$

 *****  WEATHER ACROSS CENTRAL AND WESTERN NORTH DAKOTA  *****

CITY           SKY/WX    TMP DP  RH WIND       PRES   REMARKS
JAMESTOWN      PTSUNNY   25  17  72 N18       30.07F WCI  11
BISMARCK       FAIR      30  18  60 N12       30.13F WCI  20
MINOT          FAIR      30  15  53 N7        30.11F WCI  23
MINOT AFB      FAIR      26  13  59 CALM      30.11F
GARRISON         N/A     28  17  63 W9        30.11F WCI  19
WILLISTON      CLOUDY    27  15  61 S10       30.12F WCI  17
DICKINSON      CLOUDY    23  10  57 CALM      30.08F
HETTINGER      CLOUDY    26  12  55 VRB3      30.10F
$$

 *****  OTHER OBSERVATIONS NORTHEAST NORTH DAKOTA  *****

CITY           SKY/WX    TMP DP  RH WIND       PRES   REMARKS
WALHALLA       NOT AVBL
LANGDON        NOT AVBL
CAVALIER         N/A     19  12  73 N14       30.14S WCI   6
GRAFTON        MOCLDY    19  14  79 N15       30.15S WCI   5
CANDO          NOT AVBL
FORT TOTTEN      N/A     24  15  67 NW7       29.95S WCI  16
ROLLA          FAIR      19  10  68 NW12      30.10F WCI   7
RUGBY            N/A     19  14  79 W6        30.12F WCI  11
 ***** THE ABOVE OBSERVATIONS ARE NON NWS ARE NOT QUALITY
        CONTROLLED AND MAY MIS-REPORT RAIN FOR SNOW...
$$

 *****  OTHER OBSERVATIONS SOUTHEAST NORTH DAKOTA *****

CITY           SKY/WX    TMP DP  RH WIND       PRES   REMARKS
COOPERSTOWN    MOCLDY    23  16  74 NW17      30.08S WCI   9
VALLEY CITY    MIX PCPN  25  18  74 N17       30.08S WCI  11
OAKES          NOT AVBL
GWINNER        MOCLDY    27  19  74 N20       30.05F WCI  13
SHEYENNE NWR     N/A     24  14  65 N10       29.95S WCI  14
BUFFALO        NOT AVBL
WYNDMERE         N/A     25  18  74 N21         N/A  WCI  10
 ***** THE ABOVE OBSERVATIONS ARE NON NWS ARE NOT QUALITY
       CONTROLLED AND MAY MIS-REPORT RAIN FOR SNOW...
$$

  *****  WEATHER ACROSS NORTHERN MINNESOTA  *****

CITY           SKY/WX    TMP DP  RH WIND       PRES   REMARKS
FLAG ISLAND    FAIR      18   3  53 NW14      30.03F WCI   4
WARROAD        FAIR      19   7  58 NW9       30.04F WCI   9
ROSEAU         FAIR      19   9  63 W9        30.05F WCI   9
HALLOCK        FAIR      18   9  68 N15       30.12F WCI   3
THF RVR FALLS  FAIR      21  10  62 NW17      30.07F WCI   7
HALSTAD          N/A     21  14  73 N22         N/A  WCI   5
FOSSTON        FAIR      21  10  63 NW18G29   30.02F WCI   6
BAUDETTE       FAIR      16   3  56 NW14      30.02F WCI   2
WASKISH        FAIR      19   7  58 NW10      30.00F WCI   8
CROOKSTON      PTSUNNY   19  12  73 N20G25    30.10F WCI   4
$$
  *****  WEATHER ACROSS CENTRAL AND WEST MINNESOTA  *****

CITY           SKY/WX    TMP DP  RH WIND       PRES   REMARKS
BEMIDJI        FAIR      20   8  58 N10       29.97F WCI   9
PARK RAPIDS    FAIR      23   6  48 N16G24    29.94F WCI  10
WADENA         FAIR      23  10  58 N16       29.94S WCI  10
DETROIT LAKES  FAIR      23  16  74 N22G30    29.99F WCI   8
MOORHEAD       PTSUNNY   23  16  74 N22G31    30.06F WCI   8
FERGUS FALLS   FAIR      27  16  63 N25G33    30.03S WCI  11
ELBOW LAKE     MOCLDY    26  14  61 N20G28    29.97F WCI  12
MORRIS MN      FAIR      27  16  63 N23G31    29.95F WCI  12
STAPLES        FAIR      23  10  58 N14G22    29.93S WCI  11
WHEATON        PTSUNNY   25  16  68 N23G35    30.03S WCI  10
$$
  *****  WEATHER ELSEWHERE ACROSS MINNESOTA  *****

CITY           SKY/WX    TMP DP  RH WIND       PRES   REMARKS
DULUTH         FAIR      21  11  65 N13       29.85F WCI   9
INTRNTL FALLS  FAIR      18   4  54 VRB7      29.98F WCI   9
ELY            FAIR      18   0  45 N6        29.89F WCI   9
CLOQUET        PTSUNNY   21  10  63 NW17      29.86F WCI   7
BRAINERD       FAIR      21  10  62 N21       29.92S WCI   5
HIBBING        FAIR      18   6  59 NW16      29.90F WCI   3
ALEXANDRIA     FAIR      26  11  52 N24G30    29.92F WCI  11
SAINT CLOUD    FAIR      26  13  57 N18G28    29.86F WCI  13
MINNEAPOLIS    CLOUDY    26  14  60 N22G29    29.82R WCI  12
$$

  *****  WEATHER ACROSS SOUTH DAKOTA  *****

CITY           SKY/WX    TMP DP  RH WIND       PRES   REMARKS
SIOUX FALLS    CLOUDY    27  14  58 N25G35    29.91F WCI  12
BROOKINGS      FAIR      26  13  57 N25G31    29.91F WCI  11
WATERTOWN      PTSUNNY   26  13  57 N22G32    29.95S WCI  12
HURON          FAIR      31  14  49 N18G30    30.02F WCI  19
SISSETON         N/A     26  18  71 N25       30.01F WCI  11
ABERDEEN       PTSUNNY   29  15  56 N18       30.06R WCI  16
MITCHELL       FAIR      32  16  51 N25G32    30.01S WCI  19
PIERRE         CLOUDY    30  13  49 N18       30.08F WCI  18
MOBRIDGE       FAIR      33  12  41 N16G23    30.07F WCI  23
RAPID CITY     CLOUDY    21  16  81 S3        30.05F
$$

  *****  SOME WEATHER IN NEARBY STATES *****

CITY           SKY/WX    TMP DP  RH WIND       PRES   REMARKS
GLASGOW MT     CLOUDY    30  24  78 S10       30.07F HAZE    WCI  21
GREAT FALLS MT PTSUNNY   29  18  63 NW7       30.01S WCI  22
CHEYENNE WY    CLOUDY    19  10  68 E6        29.90F WCI  11
SCOTTSBLUFF NE CLOUDY    24  17  74 CALM      30.03S HAZE
OMAHA NE       LGT SNOW  25  20  81 N24G33    29.84R VSB 3/4 WCI   9
DES MOINES IA  LGT SNOW  29  26  89 N17G25    29.69R FOG     WCI  17
DAVENPORT IA   CLOUDY    37  35  92 N10       29.55R FOG
CHICAGO IL     CLOUDY    40  37  89 N12       29.44S
EAU CLAIRE WI  LGT SNOW  25  19  78 N14G25    29.71F WCI  13
LA CROSSE WI   MIX PCPN  31  23  72 N13G20    29.66S WCI  21
$$

  *****  SOME NATIONAL WEATHER *****

CITY           SKY/WX    TMP DP  RH WIND       PRES   REMARKS
LA GUARDIA NY  FAIR      68  51  54 S15       29.86F
RALEIGH NC     FAIR      79  54  41 S7G16     29.85F
ATLANTA GA     FAIR      77  53  43 S10       29.82F
NEW ORLEANS LA PTSUNNY   78  62  57 SW10      29.80F
OKLAHOMA CITY  FAIR      50  24  36 N21G28    29.89F
ALBUQUERQUE NM FAIR      44   0  16 W13G26    29.95F
SALT LAKE CITY PTSUNNY   30  16  56 W5        30.10R
LOS ANGELES CA PTSUNNY   59  28  30 VRB3      30.17F
BOISE ID       FAIR      36  18  48 W17       30.14
SEATTLE WA     CLOUDY    42  28  57 CALM      30.18R
$$

*** WEATHER ACROSS MANITOBA...SASKATCHEWAN AND ONTARIO ***
                ***ONTARIO***

CITY           SKY/WX    TMP DP  RH WIND       PRES   REMARKS
GERALDTON      CLOUDY    10   1  67 NE13      29.95F WCI  -5
THUNDER BAY    CLOUDY    18   1  49 NE7       29.94F WCI   8
SIOUX LOOKOUT  MOSUNNY   12   0  57 N6        30.01F WCI   3
TORONTO        CLOUDY    41  39  93 E5        29.68R
BIG TROUT LK   SUNNY     10 -11  37 E5        30.14F WCI   2
PICKLE LAKE    FLURRIES  10   1  67 E5        30.03F WCI   2
DRYDEN         SUNNY     14   1  57 NE6       29.99F WCI   5
KENORA         PTSUNNY   12   1  62 N12       30.02F WCI  -2
$$
                *** MANITOBA***

CITY           SKY/WX    TMP DP  RH WIND       PRES   REMARKS
BRANDON        MOSUNNY   19  12  73 W10       30.13F WCI   8
DAUPHIN        SUNNY     25  10  54 S3        30.12F
ISLAND LAKE    PTSUNNY    1  -6  71 W6        30.15F WCI -10
PILOT MOUND      N/A     18  10  73 NW9         N/A  WCI   6
THE PAS        MOSUNNY   16   3  57 N6        30.13F WCI   7
THOMPSON       PTSUNNY    3  -9  55 VRB2      30.17F
WINNIPEG       SUNNY     16   5  62 N15       30.15S WCI   1
LYNN LAKE      MOSUNNY    5   0  78 VRB2      30.10F
CHURCHILL      CLOUDY     5  -4  66 SW8       30.28F WCI  -8
GILLAM         PTSUNNY    0  -8  71 N6        30.24F WCI -12
$$
                ***SASKATCHEWAN***

CITY           SKY/WX    TMP DP  RH WIND       PRES   REMARKS
ESTEVAN        PTSUNNY   28  16  59 SW14      30.10F WCI  17
KINDERSLEY     PTSUNNY   28  19  69 NW9       30.06F WCI  20
LLOYDMINSTER   PTSUNNY   14   9  79 N10       30.13S WCI   1
PRINCE ALBERT  PTSUNNY   23  12  63 NW8       30.09S WCI  14
REGINA         FLURRIES  28  19  69 SW10      30.06F WCI  19
YORKTON        FLURRIES  25  19  80 W6        30.07F WC



USA.gov is the U.S. government's official web portal to all federal, state and local government web resources and services.